Retour au catalogue

TITAN 3C TRANSTAGE DEB

LostHEO
NORAD 26765·DEBRIS·🇺🇸 United States

Lancé Dec 21, 1965 depuis Cape Canaveral Space Force Station

Loading…

Prochains Passages (prochaines 24 heures)

TLE

PériméSource: Space-Track

Époque: May 10, 2026, 22:59 UTC

1 26765U 65108AU  26130.95804448 -.00000103  00000-0  12955-2 0  9999
2 26765  27.1079 340.2893 6707847 215.4284 348.6911  2.68931829 21045

Suivez TITAN 3C TRANSTAGE DEB en temps réel avec AllMySat

Download on the App Store